Weather History for Volkel, Netherlands

Change the Weather History Date:

Tuesday, August 6, 2013

  Actual Average Record
Temperature  
Mean Temperature 67 °F -  
Max Temperature 75 °F 70 °F 91 °F (2003)
Min Temperature 59 °F 52 °F 46 °F (2010)
Cooling Degree Days 2    
Growing Degree Days 17 (Base 50)    
Moisture  
Dew Point 57 °F    
Average Humidity 71    
Maximum Humidity 88    
Minimum Humidity 50    
Precipitation  
Precipitation 0.00 in - - ()
Sea Level Pressure  
Sea Level Pressure 29.96 in    
Wind  
Wind Speed 9 mph ()    
Max Wind Speed 16 mph    
Max Gust Speed -    
Visibility 6.1 miles    
Events      
Averages and records for this station are not official NWS values.
T = Trace of Precipitation, MM = Missing Value Source: Averaged Metar Reports

Daily Weather History Graph

Daily Weather History Graph

Search for Another Location

Airport:

Trip Planner

Search our weather history database for the weather conditions in past years. The results will help you decide how hot, cold, wet, or windy it might be!

Date:

Astronomy

Aug. 06, 2013 Rise Set
Actual Time 6:08 AM CEST 9:16 PM CEST
Civil Twilight 5:28 AM CEST 9:56 PM CEST
Nautical Twilight 4:36 AM CEST 10:48 PM CEST
Astronomical Twilight 3:26 AM CEST 11:55 PM CEST
Moon 5:50 AM CEST (8/6) 8:33 PM CEST (8/6)
Length of Visible Light 16h 27m
Length of Day
15h 08m
Waning Crescent, 0% of the Moon is Illuminated
Aug 6
Waning Crescent
Aug 6
New
Aug 14
First Quarter
Aug 21
Full
Aug 28
Last Quarter

Hourly Weather History & Observations

Time (CEST) Temp. Dew Point Humidity Pressure Visibility Wind Dir Wind Speed Gust Speed Precip Events Conditions
12:15 AM 75.2 °F 60.8 °F 61% 29.83 in 6.2 mi WSW 10.4 mph - N/A   Partly Cloudy
12:25 AM 75.2 °F 62.6 °F 65% 29.83 in 6.2 mi SW 11.5 mph - N/A   Unknown
12:55 AM 71.6 °F 59.0 °F 64% 29.86 in 6.2 mi West 16.1 mph - N/A   Unknown
1:25 AM 69.8 °F 57.2 °F 64% 29.89 in 6.2 mi West 12.7 mph - N/A   Unknown
1:55 AM 68.0 °F 57.2 °F 68% 29.89 in 6.2 mi WSW 11.5 mph - N/A   Unknown
2:25 AM 66.2 °F 57.2 °F 73% 29.89 in 6.2 mi WSW 11.5 mph - N/A   Unknown
2:55 AM 64.4 °F 57.2 °F 77% 29.89 in 6.2 mi WSW 11.5 mph - N/A   Unknown
3:25 AM 64.4 °F 57.2 °F 77% 29.89 in 6.2 mi WSW 10.4 mph - N/A   Unknown
3:55 AM 60.8 °F 57.2 °F 88% 29.92 in 6.2 mi SSW 6.9 mph - N/A   Unknown
4:18 AM 62.6 °F 57.2 °F 82% 29.92 in 6.2 mi SSW 10.4 mph - N/A   Mostly Cloudy
4:25 AM 62.6 °F 57.2 °F 82% 29.92 in 6.2 mi SW 10.4 mph - N/A   Overcast
4:55 AM 64.4 °F 57.2 °F 77% 29.92 in 6.2 mi SSW 12.7 mph - N/A   Mostly Cloudy
5:10 AM 64.4 °F 57.2 °F 77% 29.92 in 6.2 mi SSW 12.7 mph - N/A   Overcast
5:25 AM 64.4 °F 57.2 °F 77% 29.92 in 6.2 mi SW 13.8 mph - N/A   Overcast
5:26 AM 64.4 °F 57.2 °F 77% 29.92 in 6.2 mi SW 12.7 mph - N/A   Overcast
5:42 AM 64.4 °F 57.2 °F 77% 29.92 in 6.2 mi SSW 11.5 mph - N/A   Overcast
5:47 AM 64.4 °F 57.2 °F 77% 29.92 in 6.2 mi SSW 11.5 mph - N/A   Overcast
5:55 AM 64.4 °F 57.2 °F 77% 29.92 in 6.2 mi SSW 12.7 mph - N/A   Overcast
6:25 AM 64.4 °F 57.2 °F 77% 29.92 in 6.2 mi SW 10.4 mph - N/A   Mostly Cloudy
6:32 AM 62.6 °F 57.2 °F 82% 29.92 in 6.2 mi SSW 10.4 mph - N/A   Mostly Cloudy
6:36 AM 62.6 °F 57.2 °F 82% 29.92 in 6.2 mi SSW 10.4 mph - N/A   Mostly Cloudy
6:43 AM 62.6 °F 57.2 °F 82% 29.92 in 6.2 mi SSW 10.4 mph - N/A   Mostly Cloudy
6:48 AM 64.4 °F 57.2 °F 77% 29.92 in 6.2 mi SW 10.4 mph - N/A   Overcast
6:55 AM 64.4 °F 57.2 °F 77% 29.95 in 6.2 mi SW 11.5 mph - N/A   Mostly Cloudy
7:25 AM 64.4 °F 57.2 °F 77% 29.95 in 6.2 mi SW 12.7 mph - N/A   Overcast
7:41 AM 64.4 °F 57.2 °F 77% 29.95 in 6.2 mi SW 12.7 mph - N/A   Overcast
7:50 AM 66.2 °F 57.2 °F 73% 29.95 in 6.2 mi SW 12.7 mph - N/A   Mostly Cloudy
7:55 AM 66.2 °F 57.2 °F 73% 29.95 in 6.2 mi SW 13.8 mph - N/A   Mostly Cloudy
8:00 AM 64.4 °F 57.2 °F 77% 29.95 in 6.2 mi SW 15.0 mph - N/A   Overcast
8:25 AM 64.4 °F 57.2 °F 77% 29.95 in 6.2 mi SW 15.0 mph - N/A   Mostly Cloudy
8:55 AM 66.2 °F 59.0 °F 78% 29.95 in 6.2 mi SW 15.0 mph - N/A   Mostly Cloudy
9:25 AM 66.2 °F 59.0 °F 78% 29.98 in 6.2 mi WSW 13.8 mph - N/A   Overcast
9:29 AM 66.2 °F 59.0 °F 78% 29.98 in 6.2 mi WSW 13.8 mph - N/A   Overcast
9:40 AM 66.2 °F 59.0 °F 78% 29.98 in 6.2 mi WSW 12.7 mph - N/A   Overcast
9:44 AM 66.2 °F 59.0 °F 78% 29.98 in 6.2 mi WSW 12.7 mph - N/A   Overcast
9:55 AM 68.0 °F 59.0 °F 73% 29.98 in 6.2 mi WSW 12.7 mph - N/A   Overcast
10:25 AM 68.0 °F 59.0 °F 73% 30.01 in 6.2 mi WSW 10.4 mph - N/A   Overcast
10:39 AM 68.0 °F 59.0 °F 73% 30.01 in 6.2 mi WSW 10.4 mph - N/A   Overcast
10:46 AM 68.0 °F 59.0 °F 73% 30.01 in 6.2 mi WSW 11.5 mph - N/A   Mostly Cloudy
10:55 AM 69.8 °F 59.0 °F 68% 30.01 in 6.2 mi WSW 10.4 mph - N/A   Overcast
11:25 AM 69.8 °F 59.0 °F 68% 30.01 in 6.2 mi West 8.1 mph - N/A   Overcast
11:32 AM 68.0 °F 57.2 °F 68% 30.01 in - West 8.1 mph - N/A   Overcast
11:33 AM 68.0 °F 57.2 °F 68% 30.01 in - West 9.2 mph - N/A   Overcast
11:45 AM 69.8 °F 57.2 °F 64% 30.01 in 4.3 mi West 6.9 mph - N/A   Overcast
11:55 AM 68.0 °F 57.2 °F 68% 30.01 in 6.2 mi West 6.9 mph - N/A   Mostly Cloudy
12:11 PM 69.8 °F 59.0 °F 68% 30.01 in 4.3 mi West 5.8 mph - N/A   Mostly Cloudy
12:25 PM 69.8 °F 57.2 °F 64% 30.01 in 6.2 mi WNW 6.9 mph - N/A   Overcast
12:38 PM 69.8 °F 59.0 °F 68% 30.01 in 6.2 mi West 5.8 mph - N/A   Mostly Cloudy
12:55 PM 69.8 °F 57.2 °F 64% 30.01 in 6.2 mi West 6.9 mph - N/A   Mostly Cloudy
1:25 PM 71.6 °F 57.2 °F 60% 30.01 in 6.2 mi West 8.1 mph - N/A   Overcast
1:55 PM 69.8 °F 57.2 °F 64% 30.01 in 6.2 mi WSW 4.6 mph - N/A   Overcast
2:25 PM 69.8 °F 55.4 °F 60% 30.01 in 6.2 mi NW 3.5 mph - N/A   Overcast
2:55 PM 69.8 °F 55.4 °F 60% 30.01 in 6.2 mi West 3.5 mph - N/A   Overcast
3:18 PM 69.8 °F 55.4 °F 60% 30.01 in 6.2 mi West 3.5 mph - N/A   Overcast
3:25 PM 69.8 °F 55.4 °F 60% 30.01 in 6.2 mi WSW 3.5 mph - N/A   Overcast
3:38 PM 71.6 °F 57.2 °F 60% 30.01 in 6.2 mi WNW 3.5 mph - N/A   Overcast
3:55 PM 71.6 °F 55.4 °F 57% 30.01 in 6.2 mi West 3.5 mph - N/A   Overcast
4:25 PM 71.6 °F 55.4 °F 57% 30.01 in 6.2 mi NW 2.3 mph - N/A   Overcast
4:55 PM 71.6 °F 55.4 °F 57% 30.01 in 6.2 mi SW 3.5 mph - N/A   Mostly Cloudy
5:25 PM 71.6 °F 55.4 °F 57% 29.98 in 6.2 mi NNW 3.5 mph - N/A   Overcast
5:55 PM 73.4 °F 55.4 °F 53% 29.98 in 6.2 mi NE 2.3 mph - N/A   Overcast
6:25 PM 73.4 °F 53.6 °F 50% 29.98 in 6.2 mi NNE 4.6 mph - N/A   Scattered Clouds
6:55 PM 71.6 °F 53.6 °F 53% 29.98 in 6.2 mi NE 2.3 mph - N/A   Overcast
7:25 PM 73.4 °F 53.6 °F 50% 29.98 in 6.2 mi North 3.5 mph - N/A   Unknown
7:55 PM 71.6 °F 53.6 °F 53% 29.98 in 6.2 mi NNE 3.5 mph - N/A   Unknown
8:25 PM 69.8 °F 55.4 °F 60% 29.98 in 6.2 mi NE 4.6 mph - N/A   Unknown
8:55 PM 66.2 °F 55.4 °F 68% 29.98 in 6.2 mi NE 5.8 mph - N/A   Unknown
9:25 PM 64.4 °F 55.4 °F 73% 29.98 in 6.2 mi NNE 3.5 mph - N/A   Unknown
9:48 PM 64.4 °F 57.2 °F 77% 29.98 in 4.3 mi NNE 4.6 mph - N/A   Haze
9:55 PM 62.6 °F 55.4 °F 77% 29.98 in 6.2 mi NNE 3.5 mph - N/A   Unknown
10:00 PM 62.6 °F 55.4 °F 77% 29.98 in 3.1 mi NNE 3.5 mph - N/A   Haze
10:04 PM 60.8 °F 55.4 °F 82% 29.98 in 6.2 mi NNE 3.5 mph - N/A   Unknown
10:17 PM 60.8 °F 55.4 °F 82% 29.98 in 6.2 mi NNE 3.5 mph - N/A   Unknown
10:25 PM 62.6 °F 57.2 °F 82% 29.98 in 6.2 mi NNE 4.6 mph - N/A   Unknown
10:55 PM 59.0 °F 55.4 °F 88% 30.01 in 6.2 mi NNE 2.3 mph - N/A   Unknown
11:25 PM 60.8 °F 57.2 °F 88% 29.98 in 6.2 mi North 4.6 mph - N/A   Unknown
11:55 PM 60.8 °F 55.4 °F 82% 29.98 in 6.2 mi NNE 4.6 mph - N/A   Scattered Clouds